Time,TemperatureF,DewpointF,PressureIn,WindDirection,WindDirectionDegrees,WindSpeedMPH,WindSpeedGustMPH,Humidity,HourlyPrecipIn,Conditions,Clouds,dailyrainin,SoftwareType,DateUTC
2013-06-02 00:09:00,75.0,66.0,30.07,ESE,115,0.0,1.0,74,0.00,,,0.00,weatherlink.com 1.10,2013-06-02 04:09:00,
2013-06-02 00:24:00,74.8,66.0,30.06,ESE,118,0.0,2.0,73,0.00,,,0.00,weatherlink.com 1.10,2013-06-02 04:24:00,
2013-06-02 00:39:00,74.6,65.0,30.06,ESE,119,0.0,1.0,73,0.00,,,0.00,weatherlink.com 1.10,2013-06-02 04:39:00,
2013-06-02 00:54:00,74.4,66.0,30.06,ESE,117,0.0,2.0,74,0.00,,,0.00,weatherlink.com 1.10,2013-06-02 04:54:00,
2013-06-02 01:09:00,74.1,65.0,30.06,ESE,118,0.0,1.0,74,0.00,,,0.00,weatherlink.com 1.10,2013-06-02 05:09:00,
2013-06-02 01:24:00,73.8,65.0,30.05,ESE,118,0.0,0.0,74,0.00,,,0.00,weatherlink.com 1.10,2013-06-02 05:24:00,
2013-06-02 01:39:00,73.5,65.0,30.05,SSE,153,0.0,1.0,74,0.00,,,0.00,weatherlink.com 1.10,2013-06-02 05:39:00,
2013-06-02 01:55:00,73.3,65.0,30.05,SSE,153,0.0,1.0,74,0.00,,,0.00,weatherlink.com 1.10,2013-06-02 05:55:00,
2013-06-02 02:10:00,72.9,65.0,30.04,SSE,153,0.0,1.0,75,0.00,,,0.00,weatherlink.com 1.10,2013-06-02 06:10:00,
2013-06-02 02:25:00,72.6,64.0,30.04,SSE,153,0.0,1.0,75,0.00,,,0.00,weatherlink.com 1.10,2013-06-02 06:25:00,
2013-06-02 02:40:00,72.3,64.0,30.03,SSE,154,0.0,1.0,76,0.00,,,0.00,weatherlink.com 1.10,2013-06-02 06:40:00,
2013-06-02 02:55:00,72.0,64.0,30.02,SSE,153,0.0,1.0,76,0.00,,,0.00,weatherlink.com 1.10,2013-06-02 06:55:00,
2013-06-02 03:10:00,71.8,64.0,30.02,SSE,153,0.0,2.0,77,0.00,,,0.00,weatherlink.com 1.10,2013-06-02 07:10:00,
2013-06-02 03:25:00,71.5,64.0,30.01,SSE,153,0.0,0.0,77,0.00,,,0.00,weatherlink.com 1.10,2013-06-02 07:25:00,
2013-06-02 03:40:00,71.2,64.0,30.01,SSE,153,0.0,1.0,78,0.00,,,0.00,weatherlink.com 1.10,2013-06-02 07:40:00,
2013-06-02 03:55:00,70.9,64.0,30.01,SSE,154,0.0,1.0,78,0.00,,,0.00,weatherlink.com 1.10,2013-06-02 07:55:00,
2013-06-02 04:10:00,70.7,64.0,30.01,SSE,153,0.0,1.0,78,0.00,,,0.00,weatherlink.com 1.10,2013-06-02 08:10:00,
2013-06-02 04:25:00,70.4,64.0,30.01,SSE,153,0.0,1.0,79,0.00,,,0.00,weatherlink.com 1.10,2013-06-02 08:25:00,
2013-06-02 04:40:00,70.2,63.0,30.01,SSE,153,0.0,1.0,79,0.00,,,0.00,weatherlink.com 1.10,2013-06-02 08:40:00,
2013-06-02 04:55:00,70.1,64.0,30.00,SSE,153,0.0,1.0,80,0.00,,,0.00,weatherlink.com 1.10,2013-06-02 08:55:00,
2013-06-02 05:10:00,69.9,64.0,30.00,SSE,153,0.0,1.0,80,0.00,,,0.00,weatherlink.com 1.10,2013-06-02 09:10:00,
2013-06-02 05:25:00,69.7,63.0,30.00,SSE,154,0.0,1.0,80,0.00,,,0.00,weatherlink.com 1.10,2013-06-02 09:25:00,
2013-06-02 05:40:00,69.6,64.0,30.00,SSE,154,0.0,1.0,81,0.00,,,0.00,weatherlink.com 1.10,2013-06-02 09:40:00,
2013-06-02 05:55:00,69.5,64.0,30.01,SSE,154,0.0,1.0,82,0.00,,,0.00,weatherlink.com 1.10,2013-06-02 09:55:00,
2013-06-02 06:10:00,69.3,64.0,30.02,SSE,154,0.0,1.0,83,0.00,,,0.00,weatherlink.com 1.10,2013-06-02 10:10:00,
2013-06-02 06:25:00,69.3,64.0,30.03,SSE,153,0.0,1.0,83,0.00,,,0.00,weatherlink.com 1.10,2013-06-02 10:25:00,
2013-06-02 06:40:00,69.5,64.0,30.03,SSE,153,0.0,1.0,83,0.00,,,0.00,weatherlink.com 1.10,2013-06-02 10:40:00,
2013-06-02 06:55:00,69.7,64.0,30.03,SSE,155,0.0,2.0,83,0.00,,,0.00,weatherlink.com 1.10,2013-06-02 10:55:00,
2013-06-02 07:10:00,69.9,65.0,30.04,SSE,156,0.0,1.0,83,0.00,,,0.00,weatherlink.com 1.10,2013-06-02 11:10:00,
2013-06-02 07:25:00,70.2,65.0,30.04,SSE,156,0.0,2.0,83,0.00,,,0.00,weatherlink.com 1.10,2013-06-02 11:25:00,
2013-06-02 07:40:00,70.4,65.0,30.03,SSE,156,1.0,1.0,82,0.00,,,0.00,weatherlink.com 1.10,2013-06-02 11:40:00,
2013-06-02 07:55:00,70.7,65.0,30.03,SSE,148,1.0,2.0,82,0.00,,,0.00,weatherlink.com 1.10,2013-06-02 11:55:00,
2013-06-02 08:10:00,71.1,65.0,30.02,SE,130,0.0,3.0,81,0.00,,,0.00,weatherlink.com 1.10,2013-06-02 12:10:00,
2013-06-02 08:25:00,71.6,65.0,30.04,SSW,208,0.0,4.0,80,0.00,,,0.00,weatherlink.com 1.10,2013-06-02 12:25:00,
2013-06-02 08:40:00,72.2,66.0,30.04,South,183,0.0,3.0,80,0.00,,,0.00,weatherlink.com 1.10,2013-06-02 12:40:00,
2013-06-02 08:55:00,72.9,66.0,30.04,SSE,151,0.0,3.0,78,0.00,,,0.00,weatherlink.com 1.10,2013-06-02 12:55:00,
2013-06-02 09:10:00,73.4,66.0,30.03,SW,229,0.0,3.0,78,0.00,,,0.00,weatherlink.com 1.10,2013-06-02 13:10:00,
2013-06-02 09:25:00,73.9,67.0,30.02,SW,223,1.0,2.0,78,0.00,,,0.00,weatherlink.com 1.10,2013-06-02 13:25:00,
2013-06-02 09:40:00,74.4,67.0,30.03,SE,140,0.0,2.0,78,0.00,,,0.00,weatherlink.com 1.10,2013-06-02 13:40:00,
2013-06-02 09:55:00,74.9,67.0,30.02,SSE,162,0.0,4.0,75,0.00,,,0.00,weatherlink.com 1.10,2013-06-02 13:55:00,
2013-06-02 10:10:00,75.5,67.0,30.02,SSW,201,0.0,2.0,74,0.00,,,0.00,weatherlink.com 1.10,2013-06-02 14:10:00,
2013-06-02 10:25:00,76.3,67.0,30.02,SSW,194,0.0,3.0,74,0.00,,,0.00,weatherlink.com 1.10,2013-06-02 14:25:00,
2013-06-02 10:40:00,77.5,68.0,30.02,SSW,194,1.0,3.0,72,0.00,,,0.00,weatherlink.com 1.10,2013-06-02 14:40:00,
2013-06-02 10:55:00,78.6,68.0,30.02,SSW,194,1.0,3.0,69,0.00,,,0.00,weatherlink.com 1.10,2013-06-02 14:55:00,
2013-06-02 11:10:00,79.8,68.0,30.02,SSE,163,1.0,4.0,67,0.00,,,0.00,weatherlink.com 1.10,2013-06-02 15:10:00,
2013-06-02 11:25:00,80.9,68.0,30.02,SE,141,0.0,3.0,64,0.00,,,0.00,weatherlink.com 1.10,2013-06-02 15:25:00,
2013-06-02 11:40:00,81.8,68.0,30.02,South,183,0.0,3.0,64,0.00,,,0.00,weatherlink.com 1.10,2013-06-02 15:40:00,
2013-06-02 11:56:00,82.6,69.0,30.02,SSE,161,1.0,2.0,63,0.00,,,0.00,weatherlink.com 1.10,2013-06-02 15:56:00,
2013-06-02 12:11:00,82.5,67.0,30.02,South,169,1.0,4.0,60,0.00,,,0.00,weatherlink.com 1.10,2013-06-02 16:11:00,
2013-06-02 12:26:00,82.4,68.0,30.01,SE,140,2.0,5.0,61,0.00,,,0.00,weatherlink.com 1.10,2013-06-02 16:26:00,
2013-06-02 12:41:00,82.9,68.0,30.01,South,191,0.0,3.0,60,0.00,,,0.00,weatherlink.com 1.10,2013-06-02 16:41:00,
2013-06-02 12:56:00,83.3,69.0,30.01,South,190,0.0,2.0,62,0.00,,,0.00,weatherlink.com 1.10,2013-06-02 16:56:00,
2013-06-02 13:11:00,83.3,67.0,30.01,SSE,163,2.0,4.0,59,0.00,,,0.00,weatherlink.com 1.10,2013-06-02 17:11:00,
2013-06-02 13:26:00,83.7,67.0,30.00,SSE,164,0.0,2.0,58,0.00,,,0.00,weatherlink.com 1.10,2013-06-02 17:26:00,
2013-06-02 13:41:00,84.3,68.0,30.00,South,169,0.0,3.0,58,0.00,,,0.00,weatherlink.com 1.10,2013-06-02 17:41:00,
2013-06-02 13:56:00,84.2,69.0,30.00,South,169,1.0,2.0,60,0.00,,,0.00,weatherlink.com 1.10,2013-06-02 17:56:00,
2013-06-02 14:11:00,85.0,68.0,30.00,South,176,1.0,3.0,57,0.00,,,0.00,weatherlink.com 1.10,2013-06-02 18:11:00,
2013-06-02 14:26:00,84.5,68.0,30.00,South,176,0.0,2.0,58,0.00,,,0.00,weatherlink.com 1.10,2013-06-02 18:26:00,
2013-06-02 14:41:00,83.8,69.0,29.99,South,176,0.0,2.0,62,0.00,,,0.00,weatherlink.com 1.10,2013-06-02 18:41:00,
2013-06-02 14:56:00,83.0,68.0,29.98,South,176,0.0,2.0,61,0.00,,,0.00,weatherlink.com 1.10,2013-06-02 18:56:00,
2013-06-02 15:11:00,82.5,68.0,29.98,South,176,0.0,1.0,62,0.00,,,0.00,weatherlink.com 1.10,2013-06-02 19:11:00,
2013-06-02 15:26:00,82.5,68.0,29.97,South,176,0.0,1.0,62,0.00,,,0.00,weatherlink.com 1.10,2013-06-02 19:26:00,
2013-06-02 15:41:00,82.7,67.0,29.97,South,176,0.0,1.0,60,0.00,,,0.00,weatherlink.com 1.10,2013-06-02 19:41:00,
2013-06-02 15:56:00,83.1,68.0,29.96,South,177,0.0,3.0,60,0.00,,,0.00,weatherlink.com 1.10,2013-06-02 19:56:00,
2013-06-02 16:11:00,83.4,67.0,29.96,South,176,0.0,2.0,59,0.00,,,0.00,weatherlink.com 1.10,2013-06-02 20:11:00,
2013-06-02 16:26:00,83.4,68.0,29.95,South,176,0.0,2.0,60,0.00,,,0.00,weatherlink.com 1.10,2013-06-02 20:26:00,
2013-06-02 16:41:00,83.4,69.0,29.95,South,177,0.0,2.0,62,0.00,,,0.00,weatherlink.com 1.10,2013-06-02 20:41:00,
2013-06-02 16:56:00,83.4,67.0,29.94,South,176,0.0,2.0,57,0.00,,,0.00,weatherlink.com 1.10,2013-06-02 20:56:00,
2013-06-02 17:11:00,83.4,69.0,29.94,South,177,0.0,1.0,62,0.00,,,0.00,weatherlink.com 1.10,2013-06-02 21:11:00,
2013-06-02 17:26:00,82.9,68.0,29.93,South,177,0.0,1.0,61,0.00,,,0.00,weatherlink.com 1.10,2013-06-02 21:26:00,
2013-06-02 17:41:00,82.6,67.0,29.93,South,177,0.0,1.0,59,0.00,,,0.00,weatherlink.com 1.10,2013-06-02 21:41:00,
2013-06-02 17:56:00,82.5,67.0,29.93,South,177,0.0,1.0,60,0.00,,,0.00,weatherlink.com 1.10,2013-06-02 21:56:00,
2013-06-02 18:11:00,82.3,68.0,29.93,South,177,0.0,0.0,62,0.00,,,0.00,weatherlink.com 1.10,2013-06-02 22:11:00,
2013-06-02 18:26:00,82.1,68.0,29.92,South,176,0.0,0.0,63,0.00,,,0.00,weatherlink.com 1.10,2013-06-02 22:26:00,
2013-06-02 18:41:00,81.8,67.0,29.92,NNW,348,0.0,0.0,62,0.00,,,0.00,weatherlink.com 1.10,2013-06-02 22:41:00,
2013-06-02 18:56:00,81.5,68.0,29.92,NNW,348,0.0,0.0,63,0.00,,,0.00,weatherlink.com 1.10,2013-06-02 22:56:00,
2013-06-02 19:11:00,81.0,69.0,29.92,NNW,348,0.0,0.0,68,0.00,,,0.00,weatherlink.com 1.10,2013-06-02 23:11:00,
2013-06-02 19:26:00,80.3,68.0,29.93,NNW,348,0.0,0.0,67,0.00,,,0.00,weatherlink.com 1.10,2013-06-02 23:26:00,
2013-06-02 19:41:00,79.7,69.0,29.94,NNW,348,0.0,0.0,70,0.00,,,0.00,weatherlink.com 1.10,2013-06-02 23:41:00,
2013-06-02 19:56:00,79.2,69.0,29.94,NNW,348,0.0,0.0,71,0.00,,,0.00,weatherlink.com 1.10,2013-06-02 23:56:00,
2013-06-02 20:11:00,78.8,69.0,29.95,NNW,348,0.0,0.0,72,0.00,,,0.00,weatherlink.com 1.10,2013-06-03 00:11:00,
2013-06-02 20:26:00,78.4,69.0,29.95,NNW,348,0.0,0.0,73,0.00,,,0.00,weatherlink.com 1.10,2013-06-03 00:26:00,
2013-06-02 20:41:00,78.0,69.0,29.94,North,360,0.0,0.0,73,0.00,,,0.00,weatherlink.com 1.10,2013-06-03 00:41:00,
2013-06-02 20:56:00,77.5,68.0,29.94,NW,319,0.0,1.0,73,0.00,,,0.00,weatherlink.com 1.10,2013-06-03 00:56:00,
2013-06-02 21:11:00,77.4,68.0,29.94,ENE,67,0.0,3.0,73,0.00,,,0.00,weatherlink.com 1.10,2013-06-03 01:11:00,
2013-06-02 21:26:00,77.8,68.0,29.94,SE,143,0.0,2.0,72,0.00,,,0.00,weatherlink.com 1.10,2013-06-03 01:26:00,
2013-06-02 21:41:00,78.6,68.0,29.93,SSW,213,1.0,3.0,71,0.00,,,0.00,weatherlink.com 1.10,2013-06-03 01:41:00,
2013-06-02 21:56:00,78.9,68.0,29.93,South,188,0.0,2.0,70,0.00,,,0.00,weatherlink.com 1.10,2013-06-03 01:56:00,
2013-06-02 22:11:00,78.6,68.0,29.94,South,189,0.0,1.0,70,0.00,,,0.00,weatherlink.com 1.10,2013-06-03 02:11:00,
2013-06-02 22:26:00,78.4,68.0,29.94,South,169,1.0,3.0,70,0.00,,,0.00,weatherlink.com 1.10,2013-06-03 02:26:00,
2013-06-02 22:41:00,78.2,68.0,29.95,NE,49,0.0,3.0,71,0.00,,,0.00,weatherlink.com 1.10,2013-06-03 02:41:00,
2013-06-02 22:56:00,77.7,68.0,29.96,SSE,150,1.0,3.0,72,0.00,,,0.00,weatherlink.com 1.10,2013-06-03 02:56:00,
2013-06-02 23:11:00,77.5,68.0,29.97,South,186,0.0,5.0,73,0.00,,,0.00,weatherlink.com 1.10,2013-06-03 03:11:00,
2013-06-02 23:26:00,77.2,68.0,29.98,SSE,159,0.0,3.0,74,0.00,,,0.00,weatherlink.com 1.10,2013-06-03 03:26:00,
2013-06-02 23:41:00,76.6,69.0,29.98,SSE,160,0.0,1.0,77,0.00,,,0.00,weatherlink.com 1.10,2013-06-03 03:41:00,
2013-06-02 23:56:00,74.9,68.0,29.97,SSE,159,0.0,0.0,80,0.00,,,0.00,weatherlink.com 1.10,2013-06-03 03:56:00,